Home > Weather > Chaguanas > Past weeks

Flag for Trinidad and Tobago Weather for the Past 2 Weeks in Chaguanas, Trinidad and Tobago

Now
81 °F

Passing clouds.


Feels Like: 85 °F
Forecast: N/A
Wind: No wind

Location: Piarco International Airport - Trinidad

Current Time: May 1, 2016 at 5:22:29 PM

Latest Report: May 1, 2016 at 5:00 PM


Visibility: N/A

Pressure: 29.89 "Hg

Humidity: 74%

Dew Point: 72 °F

Location of ChaguanasLocation

Historic Weather in Chaguanas — Graph

°F

Chaguanas Temperature Yesterday

Maximum temperature yesterday: 88 °F (at 12:00 PM)
Minimum temperature yesterday: 77 °F (at 1:00 PM)
Average temperature yesterday: 82 °F

High & Low Weather Summary for the Past Weeks

 TemperatureHumidityPressure
High95 °F (Apr 18, 2:00 PM)100% (Apr 27, 4:00 AM)30.01 "Hg (Apr 27, 4:00 AM)
Low72 °F (May 1, 10:00 AM)47% (Apr 18, 2:00 PM)29.77 "Hg (Apr 25, 3:00 PM)
Average83 °F79%29.87 "Hg
* Reported Apr 16 4:00 PM — May 1 4:00 PM, Chaguanas, Weather by CustomWeather, © 2016

Note: Actual official high and low records may vary slightly from our data, if they occured in-between our weather recording intervals... More about our weather records

Advertising

Chaguanas Weather History for the Previous 24 Hours

Scroll right to see more
 ConditionsComfort  
Time TempWeatherWind HumidityBarometerVisibility
4:00 PM
Sun, May 1
81 °FPassing clouds.No wind74%29.89 "HgN/A
2:00 PM81 °FScattered showers. Passing clouds.3 mph74%29.92 "HgN/A
1:00 PM77 °FLight rain. Broken clouds.6 mph94%29.95 "Hg6 mi
12:00 PM75 °FLight rain. Partly sunny.5 mph100%29.98 "HgN/A
11:00 AM75 °FLight rain. Partly sunny.3 mph94%29.98 "HgN/A
10:00 AM72 °FLight rain. More clouds than sun.6 mph100%30.01 "HgN/A
9:00 AM75 °FLight rain. Partly sunny.17 mph94%30.01 "Hg1 mi
7:00 AM73 °FLight rain. Broken clouds.5 mph94%29.95 "Hg2 mi
5:13 AM77 °FRain. Partly cloudy.No wind100%29.89 "Hg2 mi
5:00 AM77 °FLight rain. Passing clouds.No wind100%29.89 "Hg3 mi
4:00 AM79 °FSprinkles. Passing clouds.12 mph94%29.86 "Hg4 mi
3:00 AM79 °FSprinkles. Passing clouds.16 mph94%29.83 "HgN/A
2:00 AM79 °FPassing clouds.13 mph84%29.83 "HgN/A
1:00 AM81 °FPassing clouds.10 mph84%29.86 "HgN/A
12:00 AM81 °FPassing clouds.12 mph89%29.89 "HgN/A
11:00 PM
Sat, Apr 30
79 °FPassing clouds.6 mph94%29.92 "HgN/A
10:00 PM79 °FPassing clouds.6 mph94%29.92 "HgN/A
9:00 PM81 °FSprinkles. Passing clouds.No wind89%29.92 "HgN/A
8:00 PM81 °FPassing clouds.6 mph84%29.89 "HgN/A
7:00 PM82 °FPassing clouds.7 mph79%29.86 "HgN/A
6:00 PM82 °FPassing clouds.7 mph74%29.83 "HgN/A
5:00 PM84 °FPassing clouds.8 mph70%29.83 "HgN/A
Weather by CustomWeather, © 2016

See weather overviewHow to use our weather pages